This is the latest recevied weather packets stored in our database for station/object KF4LQQ-13. If no packets are shown the sender has not sent any weather packets the latest 10 day(s).
| Time | Temp. | Humidity | Pressure | Rain* | Wind** | Luminosity | Snow |
|---|---|---|---|---|---|---|---|
| 1778093860 | 30° C | - | 1013.7 hPa | 0 mm | - | - | - |
| 1778093260 | 30° C | - | 1014 hPa | 0 mm | - | - | - |
| 1778093152 | 29.44° C | - | 1014.1 hPa | 0 mm | - | - | - |
| 1778092659 | 29.44° C | - | 1014.1 hPa | 0 mm | - | - | - |
| 1778092059 | 30° C | - | 1014.3 hPa | 0 mm | - | - | - |
| 1778091459 | 29.44° C | - | 1014.3 hPa | 0 mm | - | - | - |
| 1778090859 | 29.44° C | - | 1014.3 hPa | 0 mm | - | - | - |
| 1778090259 | 29.44° C | - | 1014.4 hPa | 0 mm | - | - | - |
| 1778089658 | 28.89° C | - | 1014.5 hPa | 0 mm | - | - | - |
| 1778089058 | 29.44° C | - | 1014.5 hPa | 0 mm | - | - | - |
| 1778088458 | 28.89° C | - | 1014.5 hPa | 0 mm | - | - | - |
| 1778087858 | 29.44° C | - | 1014.5 hPa | 0 mm | - | - | - |
| 1778087255 | 28.89° C | - | 1014.6 hPa | 0 mm | - | - | - |
| 1778086653 | 28.89° C | - | 1014.7 hPa | 0 mm | - | - | - |
| 1778086052 | 28.89° C | - | 1014.7 hPa | 0 mm | - | - | - |
| 1778085452 | 28.33° C | - | 1014.7 hPa | 0 mm | - | - | - |
| 1778084852 | 28.89° C | - | 1014.8 hPa | 0 mm | - | - | - |
| 1778084251 | 28.89° C | - | 1014.8 hPa | 0 mm | - | - | - |
| 1778083650 | 28.89° C | - | 1014.8 hPa | 0 mm | - | - | - |
| 1778083050 | 28.89° C | - | 1014.8 hPa | 0 mm | - | - | - |
| 1778082448 | 28.33° C | - | 1014.8 hPa | 0 mm | - | - | - |
| 1778081848 | 27.78° C | - | 1014.7 hPa | 0 mm | - | - | - |
| 1778081248 | 27.78° C | - | 1014.8 hPa | 0 mm | - | - | - |
| 1778080648 | 27.22° C | - | 1014.7 hPa | 0 mm | - | - | - |
| 1778080047 | 26.67° C | - | 1014.7 hPa | 0 mm | - | - | - |
* Rain since midnight (hover to see other rain measurements)
** Current wind speed in m/s (hover to see current wind gust speed)